This demonstration page uses our WeatherBlox Daily Observations layout. Learn more.

41.55636, -103.73856

Hourly Observations for August 10, 2019

Temp ( °F °C ) Dew Point ( °F °C ) Humidity (%) Winds ( mph kmh ) Pressure ( in mb ) Visibility ( mi km ) Precip ( " mm )
12:56 am 00:56 Mostly Cloudy 84 28.7 54 12.2 36 36 Calm 29.83 1010 10 16.0934 0 0
1:56 am 01:56 Mostly Clear 80 26.5 52 11.1 38 38 SE 9 15 29.84 1010 10 16.0934 0 0
3:56 am 03:56 Clear 74 23.3 57 14 56 56 S 7 11 29.85 1011 10 16.0934 0 0
4:56 am 04:56 Mostly Clear 70 21.1 57 14.1 64 64 S 7 11 29.84 1011 10 16.0934 0 0
5:56 am 05:56 Partly Cloudy 68 19.8 51 10.8 56 56 NW 6 9 29.85 1011 10 16.0934 0 0
7:56 am 07:56 Mostly Cloudy 68 20.2 50 10 52 52 Calm 29.85 1011 10 16.0934 0 0
8:56 am 08:56 Mostly Cloudy 65 18.3 53 11.8 66 66 Calm 29.86 1011 10 16.0934 0 0
9:56 am 09:56 Mostly Cloudy 62 16.5 53 11.6 73 73 SW 5 7 29.86 1011 10 16.0934 0 0
10:56 am 10:56 Cloudy 60 15.8 51 10.8 72 72 SW 6 9 29.87 1012 10 16.0934 0 0
11:56 am 11:56 Mostly Cloudy 60 15.6 52 11.3 76 76 WNW 5 7 29.89 1012 10 16.0934 0 0
12:56 pm 12:56 Mostly Cloudy 61 15.9 56 13.1 84 84 W 6 9 29.92 1013 10 16.0934 0 0
1:56 pm 13:56 Mostly Cloudy 67 19.5 59 15.2 76 76 WNW 8 13 29.93 1014 10 16.0934 0 0
2:56 pm 14:56 Partly Cloudy 67 19.4 60 15.7 79 79 WNW 5 7 29.95 1014 10 16.0934 0 0
3:56 pm 15:56 Mostly Sunny 69 20.8 62 16.8 78 78 SW 6 9 29.96 1015 10 16.0934 0 0
4:56 pm 16:56 Sunny 72 22.2 62 16.6 71 71 WSW 6 9 29.95 1014 10 16.0934 0 0
5:56 pm 17:56 Mostly Sunny 76 24.3 62 16.8 63 63 SW 3 6 29.95 1014 10 16.0934 0 0
6:56 pm 18:56 Mostly Sunny 80 26.4 58 14.7 49 49 Calm 29.93 1014 10 16.0934 0 0
7:56 pm 19:56 Partly Cloudy 79 26.1 60 15.7 53 53 ESE 5 7 29.94 1014 10 16.0934 0 0
8:56 pm 20:56 Mostly Cloudy 80 26.9 48 8.7 32 32 NNW 6 9 29.93 1014 10 16.0934 0 0
9:56 pm 21:56 Mostly Cloudy 81 27.1 47 8.5 31 31 Calm 29.94 1014 10 16.0934 0 0
10:56 pm 22:56 Sunny 80 26.4 52 11.2 39 39 SSE 7 11 29.9 1013 10 16.0934 0 0
11:56 pm 23:56 Sunny 83 28.5 47 8.4 28 28 SE 8 13 29.88 1012 10 16.0934 0 0

Powered by AerisWeather